Tracking 30923 objects as of 1-Jul-2025
HD Live streaming from Space Station
objects crossing your sky now

COSMOS 2499 DEB

Track COSMOS 2499 DEB now!
10-day predictions


NORAD ID: 49926
Int'l Code: 2014-028H
Perigee: 969.4 km
Apogee: 1,593.2 km
Inclination: 82.4 °
Period: 111.0 minutes
Semi major axis: 7652 km
RCS: Unknown
Launch date: May 23, 2014
Source: Commonwealth of Independent States (former USSR) (CIS)
Launch site: PLESETSK MISSILE AND SPACE COMPLEX (PKMTR)

Note: This is SATELLITE DEBRIS
Your satellite tracking list
GONETS M 03
Track 1 satellite(s)




NASA's NSSDC Master Catalog

Two Line Element Set (TLE):
1 49926U 14028H   25181.58531532  .00008525  00000-0  20171-1 0  9996
2 49926  82.3830 119.3871 0407575  62.4329 301.7565 12.96915762172319
Source of the keplerian elements: AFSPC